FloripaSat 1
1 44885U 19093G   25212.82560651  .00005313  00000-0  44361-3 0  9999
2 44885  97.8148 300.5496 0010813  31.7529 328.4344 14.98938842304578
RS-44
1 44909U 19096E   25212.46618673  .00000021  00000-0  35565-4 0  9995
2 44909  82.5210 192.8054 0217518 173.9550 186.4257 12.79742183261320
UPMSat 2
1 46276U 20061E   25212.18025463  .00108598  00000-0  69104-3 0  9999
2 46276  97.2384 288.5474 0001245 165.4658 194.6644 15.76127687273573
SALSAT
1 46495U 20068K   25212.84725765  .00008086  00000-0  34279-3 0  9990
2 46495  97.8641 193.3227 0010527 350.6482   9.4556 15.23373149266488
CubeSX-Sirius-HSE
1 47951U 21022V   25157.62701764  .07883385  25648-5  89537-3 0  9993
2 47951  97.4004  72.1904 0010275 223.9924 136.0557 16.36879307233400
CubeSX-HSE
1 47952U 21022W   25157.69972699  .06655353  25454-5  93288-3 0  9992
2 47952  97.3980  72.5414 0010307 219.3637 140.6911 16.34906352233436
GRBAlpha
1 47959U 21022AD  25160.45426279  .07940347  25506-5  90589-3 0  9995
2 47959  97.3899  75.6235 0011032 227.2558 132.7812 16.36806138232695
TUBIN
1 48900U 21059X   25212.78826130  .00053641  00000-0  54947-3 0  9996
2 48900  97.6777  26.4307 0002966  49.2838 310.8678 15.64822504228197
LEDSAT
1 49069U 21073D   25212.76911635  .00107140  00000-0  95900-3 0  9990
2 49069  97.3846 296.7417 0008662 233.5440 126.5024 15.67966757219591
CUTE
1 49263U 21088D   25212.20270261  .00016324  00000-0  30005-3 0  9992
2 49263  97.4476 290.0241 0007829  59.9537 300.2490 15.49270592212417
TeikyoSat 4
1 49396U 21102B   25212.58259567  .00002738  00000-0  18257-3 0  9992
2 49396  97.4073 249.1309 0011350 320.8200  39.2206 15.07827248204389
Z-Sat
1 49399U 21102E   25212.81107829  .00004165  00000-0  22726-3 0  9996
2 49399  97.3770 252.7752 0016217 283.9070  76.0358 15.14778219204881
KOSEN 1
1 49402U 21102H   25212.59210873  .00007356  00000-0  33516-3 0  9994
2 49402  97.3673 256.3774 0014041 254.4796 105.4890 15.20873324205196
HO-113
1 50466U 21131B   25212.84395500  .00000492  00000-0  16743-3 0  9994
2 50466  98.5103 301.9422 0003782 357.1482   2.9684 14.40865201188973
Foresail-1
1 52766U 22057AL  25176.64799660  .13857605  27391-5  25307-3 0  9992
2 52766  97.5832 331.2310 0012137 233.7199 258.4922 16.46795272172486
SNUGLITE 2
1 52899U 22065F   25212.45977594  .00001187  00000-0  23925-3 0  9991
2 52899  98.1754 353.9489 0006623 317.9940  42.0753 14.63313810164079
UmKA 1 (RS40S)
1 57172U 23091G   25212.83088480  .00006591  00000-0  34723-3 0  9991
2 57172  97.5546 267.9471 0015240 149.0856 211.1277 15.15841561115398
CubeBel-2 (EU11S)
1 57175U 23091K   25212.85058144  .00010425  00000-0  48422-3 0  9992
2 57175  97.5542 269.4422 0012828 154.5402 205.6467 15.20123001115495
VERONIKA
1 58261U 23174F   25212.79159790  .00554912  12646-3  15241-2 0  9991
2 58261  97.4019 302.8145 0008666 241.5146 118.5256 15.93919914 96921
ENSO
1 58470U 23185J   25212.83938775  .00072048  00000-0  84042-3 0  9997
2 58470  97.3691 289.8260 0006227 235.2395 124.8277 15.61392761 93174
EIRSAT-1
1 58472U 23185L   25212.86063604  .00243005  00000-0  12005-2 0  9994
2 58472  97.3609 292.9170 0006945 234.9443 125.1174 15.81398409 93387
SONATE-2
1 59112U 24043Q   25212.33545562  .00017811  00000-0  48994-3 0  9991
2 59112  97.5194 344.6219 0009535 290.9637  69.0587 15.37204338 78288
MO-122
1 60209U 24125G   25212.53152477  .00019755  00000-0  53277-3 0  9991
2 60209  97.2748  63.6102 0016563 314.0827  45.9053 15.37695072 59937
GRBBeta
1 60237U 24128C   25212.50169491  .00003343  00000-0  25480-3 0  9997
2 60237  61.9903 258.4714 0055294  68.5060 292.1914 15.02997176 58007
Curium One
1 60242U 24128H   25212.51461349  .00006322  00000-0  43445-3 0  9992
2 60242  61.9798 255.9229 0055242  64.7996 295.8810 15.05734240 58051
ROBUSTA-3A
1 60243U 24128J   25212.46720775  .00005624  00000-0  39371-3 0  9995
2 60243  61.9871 257.0934 0054297  62.4682 298.1913 15.05251910 58032
CatSat
1 60246U 24125J   25212.52747767  .00018718  00000-0  60451-3 0  9993
2 60246  97.2553  62.2127 0039850 268.7093  90.9583 15.31371938 57930
HYPERVIEW-1G (RS66S)
1 61772U 24199AP  25212.84564648  .00022825  00000-0  62307-3 0  9995
2 61772  97.3462  81.6404 0012948  14.3787 345.7823 15.37347367 84980
AO-123
1 61781U 24199AY  25212.81669798  .00007193  00000-0  25749-3 0  9994
2 61781  97.3481  79.9014 0016033  19.2830 340.9014 15.28954794 84864
ZIMSAT 2
1 61783U 24199BA  25212.82767991  .00044482  00000-0  96802-3 0  9991
2 61783  97.3431  82.6845 0011812  11.4325 348.7189 15.44099366 88201
HADES-R (SO-124)
1 62690U 25009CK  25212.18972112  .00043304  00000-0  13838-2 0  9991
2 62690  97.4067 292.9002 0002203 241.2104 118.8917 15.32321012 30045
HYDRA-T
1 62692U 25009CM  25212.16529035  .00045154  00000-0  14269-2 0  9997
2 62692  97.4075 292.9329 0002090 233.7232 126.3817 15.32668033 30040
JINJUSat 1B
1 63210U 25052A   25212.63025784  .00012407  00000-0  55203-3 0  9995
2 63210  97.4347 106.1101 0005831 125.6136 234.5644 15.21608640 21160
NUSHSAT 1
1 63211U 25052B   25212.61567340  .00013759  00000-0  60575-3 0  9992
2 63211  97.4332 106.1116 0005801 129.4930 230.6820 15.21944503 21166
TEVEL2-4
1 63213U 25052D   25212.64010926  .00013899  00000-0  61811-3 0  9999
2 63213  97.4253 105.9307 0004543 138.9896 221.1682 15.21603825 21167
TEVEL2-5
1 63214U 25052E   25212.50994148  .00013645  00000-0  60746-3 0  9997
2 63214  97.4251 105.7995 0004533 139.0970 221.0607 15.21571791 21141
TEVEL2-6
1 63215U 25052F   25212.44768909  .00013441  00000-0  59918-3 0  9998
2 63215  97.4252 105.7322 0004517 140.6046 219.5519 15.21529637 21136
TEVEL2-1
1 63217U 25052H   25212.20327472  .00012460  00000-0  55967-3 0  9990
2 63217  97.4227 105.4034 0004255 152.2944 207.8519 15.21289499 21096
TEVEL2-2
1 63218U 25052J   25212.13773842  .00012313  00000-0  55309-3 0  9996
2 63218  97.4228 105.3396 0004246 153.1753 206.9703 15.21291126 21080
TEVEL2-3
1 63219U 25052K   25212.66428594  .00013516  00000-0  60658-3 0  9995
2 63219  97.4227 105.8570 0004273 151.6215 208.5254 15.21298317 21162
TEVEL2-8
1 63237U 25052AD  25212.63985300  .00012673  00000-0  58965-3 0  9996
2 63237  97.4293 105.7007 0007928 178.6024 181.5234 15.20052035 21146
TEVEL2-9
1 63238U 25052AE  25212.64443748  .00012783  00000-0  59601-3 0  9993
2 63238  97.4293 105.6979 0007955 179.0679 181.0572 15.19979181 21143
TEVEL2-7
1 63239U 25052AF  25212.45002233  .00012401  00000-0  57894-3 0  9992
2 63239  97.4293 105.4978 0008004 180.2149 179.9084 15.19941404 21111
HYDRA-W
1 63490U 25052BL  25212.47014746  .00032163  00000-0  12641-2 0  9992
2 63490  97.4241 106.1385 0011578 177.5677 182.5620 15.25552463 21169
HADES-ICM (SO-125)
1 63492U 25052BN  25212.69873967  .00028721  00000-0  11487-2 0  9998
2 63492  97.4245 106.3015 0011713 180.9979 179.1238 15.24989899 21197
